This is the latest recevied weather packets stored in our database for station/object KC1TWD. If no packets are shown the sender has not sent any weather packets the latest 10 day(s).
| Time | Temp. | Humidity | Pressure | Rain* | Wind** | Luminosity | Snow |
|---|---|---|---|---|---|---|---|
| 1778156458 | 10° C | 75% | 1008.1 hPa | 0 mm | - | - | - |
| 1778156154 | 10° C | 76% | 1008 hPa | 0 mm | - | - | - |
| 1778155850 | 10.56° C | 78% | 1008.1 hPa | 0 mm | - | - | - |
| 1778155546 | 10.56° C | 75% | 1007.9 hPa | 0 mm | - | - | - |
| 1778155243 | 10° C | 77% | 1008.1 hPa | 0 mm | - | - | - |
| 1778154940 | 9.44° C | 80% | 1008.2 hPa | 0 mm | - | - | - |
| 1778154636 | 9.44° C | 79% | 1008.5 hPa | 0 mm | - | - | - |
| 1778154331 | 9.44° C | 83% | 1008.4 hPa | 0 mm | - | - | - |
| 1778154029 | 8.89° C | 89% | 1008.2 hPa | 0 mm | - | - | - |
| 1778153726 | 8.33° C | 93% | 1008.2 hPa | 0 mm | - | - | - |
| 1778153423 | 8.33° C | 98% | 1008.2 hPa | 0 mm | - | - | - |
| 1778153121 | 7.78° C | 99% | 1008.2 hPa | 0 mm | - | - | - |
| 1778152818 | 7.78° C | 99% | 1008.2 hPa | 0 mm | - | - | - |
| 1778152515 | 7.78° C | 99% | 1008.1 hPa | 0 mm | - | - | - |
| 1778152211 | 7.22° C | 99% | 1008.2 hPa | 0 mm | - | - | - |
| 1778151908 | 7.22° C | 99% | 1008.3 hPa | 0 mm | - | - | - |
| 1778151604 | 6.67° C | 99% | 1008.1 hPa | 0 mm | - | - | - |
| 1778151301 | 6.67° C | 99% | 1008 hPa | 0 mm | - | - | - |
| 1778150997 | 6.67° C | 99% | 1007.8 hPa | 0 mm | - | - | - |
| 1778150695 | 6.11° C | 99% | 1007.7 hPa | 0 mm | - | - | - |
| 1778150390 | 6.11° C | 99% | 1007.7 hPa | 0 mm | - | - | - |
| 1778150087 | 6.11° C | 99% | 1007.6 hPa | 0 mm | - | - | - |
| 1778149783 | 6.11° C | 99% | 1007.8 hPa | 0 mm | - | - | - |
| 1778149480 | 6.11° C | 99% | 1007.7 hPa | 0 mm | - | - | - |
| 1778149177 | 6.11° C | 99% | 1007.8 hPa | 0 mm | - | - | - |
* Rain latest hour (hover to see other rain measurements)
** Current wind speed in m/s (hover to see current wind gust speed)